Location: DARK SKY Beskydy - Park tmavé oblohy, www.darkskybeskydy.cz
(49.4926°N, 18.5016°E)
Time: 17:33:05
(UTC+02:00)

PCSat - Pass Details

Date: 05 August 2024
Orbit: 781 x 793 km, 67.1° (Epoch: 08 September)

Event Time Altitude Azimuth Distance (km) Brightness Sun altitude
Rises 23:42:15 0° 313° (NW) 3,297 13.8 -22.1°
Reaches altitude 10° 23:46:18 10° 343° (NNW) 2,368 13.2 -22.3°
Maximum altitude 23:48:34 13° 8° (N) 2,196 12.7 -22.4°
Drops below altitude 10° 23:50:50 10° 33° (NNE) 2,369 12.6 -22.5°
Sets 23:54:53 0° 62° (ENE) 3,297 12.9 -22.7°
